Regional Weather Roundup
Issued by NWS

Home | Current Version | Previous Version | Graphics & Text | Print | Product List | Glossary Off
Versions: 1 2 3 4 5 6 7 8 9 10 11 12 13 14 15 16 17 18 19 20 21 22 23 24 25 26 27 28 29 30 31 32 33 34 35 36 37 38 39 40 41 42 43 44 45 46 47 48 49 50

000
ASUS43 KDMX 270007
RWRIA

WEATHER ROUNDUP FOR IOWA
NATIONAL WEATHER SERVICE DES MOINES IA
700 PM CDT TUE AUG 26 2014

NOTE: "FAIR" INDICATES FEW OR NO CLOUDS BELOW 12,000 FEET WITH NO
SIGNIFICANT WEATHER AND/OR OBSTRUCTIONS TO VISIBILITY.

* - THESE STATIONS ARE NOT NWS STATIONS...THUS NOT UNDER NWS
QUALITY CONTROL.  THEY ALSO DO NOT REPORT WEATHER SUCH
AS PRECIPITATION OR FOG.

IAZ001>003-012>014-020>022-031>034-043>046-270100-
   NORTHWEST IOWA

CITY           SKY/WX    TMP DP  RH WIND       PRES   REMARKS
CARROLL *      SUNNY     72  63  73 NE7       30.13R
CHEROKEE *     PTSUNNY   68  62  79 CALM      30.13S
DENISON *      MOSUNNY   72  64  78 E7        30.11S
LE MARS *      SUNNY     70  61  73 SE6       30.13S
ORANGE CITY *  SUNNY     72  59  64 E5        30.14S
SHELDON *      SUNNY     68  59  73 NE6       30.12F
SIOUX CITY     CLOUDY    72  62  71 E6        30.12R
6HR MIN TEMP:  71; 6HR MAX TEMP:  75; 6HR PCP: TRACE;

SPENCER        PTSUNNY   69  59  70 E6        30.13F
6HR MIN TEMP:  65; 6HR MAX TEMP:  72;

STORM LAKE *   SUNNY     68  63  83 E5        30.14S
$$

IAZ055>058-069>071-079>083-090>094-270100-
   SOUTHWEST IOWA

CITY           SKY/WX    TMP DP  RH WIND       PRES   REMARKS
ATLANTIC *     MOSUNNY   75  66  73 E7        30.10S
AUDUBON *      PTSUNNY   75  70  83 E5        30.14R
CLARINDA *     SUNNY     79  70  73 E3        30.10R HX  81
COUNCIL BLFS * MOSUNNY   73  70  88 E6        30.10S
CRESTON *      SUNNY     75  68  78 NE6       30.11S
HARLAN  *      SUNNY     73  66  78 E5        30.15S
LAMONI         CLEAR     78  69  73 NE8       30.09F HX  80
6HR MIN TEMP:  74; 6HR MAX TEMP:  80;

RED OAK *      SUNNY     77  70  78 NE8       30.09F
SHENANDOAH *   MOSUNNY   79  70  73 NE8       30.09S HX  81
$$

IAZ047>049-059>061-072>074-084-270100-
   CENTRAL IOWA

CITY           SKY/WX    TMP DP  RH WIND       PRES   REMARKS
AMES           PTCLDY    73  63  70 NE3       30.12S
6HR MIN TEMP:  70; 6HR MAX TEMP:  78;

ANKENY *       CLEAR     75  66  73 NE5       30.11S
CHARITON *     CLEAR     77  68  73 NE7       30.10S
DES MOINES     MOCLDY    79  63  57 E8        30.10S HX  80
6HR MIN TEMP:  76; 6HR MAX TEMP:  82;

GRINNELL*      CLEAR     73  64  73 NE6       30.12F
KNOXVILLE *    CLEAR     77  63  61 NE6       30.09F
MARSHALLTOWN   CLEAR     72  64  76 N7        30.12S
6HR MIN TEMP:  72; 6HR MAX TEMP:  77;

PELLA *        CLEAR     77  67  69 NE3       30.11F
PERRY *          N/A     75  64  69 E3        30.12R
$$

IAZ004>006-015-016-023>025-035-036-270100-
   NORTH CENTRAL IOWA

CITY           SKY/WX    TMP DP  RH WIND       PRES   REMARKS
ALGONA *       MOSUNNY   70  59  68 NE5       30.15S
CLARION *      PTCLDY    72  63  73 N5        30.14S
ESTHERVILLE    MOSUNNY   70  57  63 NE8       30.14F
6HR MIN TEMP:  65; 6HR MAX TEMP:  72;

FORT DODGE *   PTSUNNY   70  61  73 NE3       30.14S
MASON CITY     MOCLDY    71  59  65 CALM      30.16S
6HR MIN TEMP:  71; 6HR MAX TEMP:  76;

FOREST CITY *  CLEAR     70  59  68 N3        30.14F
IOWA FALLS *     N/A     73  62  70 CALM      30.15S
$$

IAZ007>011-017>019-026>030-037>042-050>054-066-270100-
   NORTHEAST IOWA

CITY           SKY/WX    TMP DP  RH WIND       PRES   REMARKS
CEDAR RAPIDS   CLEAR     75  66  73 NW7       30.10F
6HR MIN TEMP:  74; 6HR MAX TEMP:  81;

CHARLES CITY * PTCLDY    70  61  73 NW5       30.15S
CLINTON *      CLEAR     75  66  73 N5        30.11F
DECORAH *      CLEAR     70  59  68 VRB5      30.13S
DUBUQUE        PTCLDY    75  65  70 NE5       30.12S
6HR MIN TEMP:  73; 6HR MAX TEMP:  78;

MONTICELLO *   CLEAR     75  66  73 N5        30.11S
OELWEIN *      PTCLDY    72  64  78 CALM      30.15R
WATERLOO       MOCLDY    73  59  61 N8        30.12S
6HR MIN TEMP:  73; 6HR MAX TEMP:  79;

$$

IAZ064-065-067-068-078-270100-
   EAST CENTRAL IOWA

CITY           SKY/WX    TMP DP  RH WIND       PRES   REMARKS
DAVENPORT      PTCLDY    79  68  69 N3        30.10S HX  81
6HR MIN TEMP:  76; 6HR MAX TEMP:  82;

IOWA CITY      CLEAR     78  66  66 NE6       30.10F HX  80
6HR MIN TEMP:  78; 6HR MAX TEMP:  82;

MT. PLEASANT * PTCLDY    79  67  67 NE3       30.08F HX  81
MUSCATINE *    CLEAR     81  68  65 N6        30.09S HX  83
QUAD CITIES    PTCLDY    81  63  54 N5        30.08S HX  82
6HR MIN TEMP:  78; 6HR MAX TEMP:  85;

$$

IAZ062-063-075>077-085>089-095>099-270100-
   SOUTHEAST IOWA

CITY           SKY/WX    TMP DP  RH WIND       PRES   REMARKS
BURLINGTON     CLEAR     80  70  71 NE5       30.07F HX  83
6HR MIN TEMP:  80; 6HR MAX TEMP:  86;

FAIRFIELD *    CLEAR     79  68  69 N6        30.09S HX  81
FORT MADISON * CLEAR     79  72  78 NE3       30.08S HX  82
KEOKUK *       CLEAR     79  72  78 VRB6      30.07R HX  82
OSKALOOSA *      N/A     76  68  76 NE5       30.10S
CENTERVILLE *  CLEAR     77  70  78 NE5       30.11S
OTTUMWA        PTCLDY    79  67  66 N6        30.09F HX  81
6HR MIN TEMP:  79; 6HR MAX TEMP:  82;

WASHINGTON *   CLEAR     79  70  73 NE5       30.09S HX  81
$$

ABBREVIATIONS USED IN REMARKS
   TC - TEMPERATURES IN CELSIUS
  WCI - WIND CHILL INDEX
   HX - HEAT INDEX
  VSB - VISIBILITY
$$




USA.gov is the U.S. government's official web portal to all federal, state and local government web resources and services.